Home > Time Zones > World Clock > Weather > Yemen > Aden > Past weeks

Flag for Yemen Weather past 2 weeks in Aden, Yemen

Now
90 °F

Duststorm.


Feels Like: 98 °F
Forecast: 85 / 96 °F
Wind: 5 mph from Southeast

Location: Aden

Current Time: Jul 24, 2014 at 11:18:54 PM

Latest Report: Jul 24, 2014 at 11:00 PM


Visibility: 3 mi

Pressure: 29.59 "Hg

Humidity: 59%

Dew point: 73 °F

Location of AdenLocation

Historic Weather in Aden — Graph

°F

Aden temperature yesterday

Maximum temperature yesterday: 97 °F (at 3:00 PM)
Minimum temperature yesterday: 86 °F (at 6:00 AM)
Average temperature yesterday: 91 °F

Past Weeks' High & Low Weather Summary

 TemperatureHumidityPressure
High99 °F (Jul 11, 4:00 PM)75% (Jul 17, 4:00 AM)29.77 "Hg (Jul 17, 4:00 AM)
Low84 °F (Jul 13, 5:00 AM)25% (Jul 11, 5:00 PM)29.47 "Hg (Jul 18, 5:00 PM)
Average91 °F54%29.60 "Hg
* Reported Jul 9 10:00 PM — Jul 24 10:00 PM, Aden, Weather by CustomWeather, © 2014

Note: Actual official high and low records may vary slightly from our data, if they occured in-between our weather recording intervals... More about our weather records

Advertising

Aden weather history for previous 24 hours

 ConditionsComfort  
Time TempWeatherWind HumidityBarometerVisibility
10:00 PM
Jul 24
91 °FDuststorm.3 mph52%29.59 "Hg3 mi
9:00 PM91 °FDuststorm.2 mph52%29.59 "Hg3 mi
8:00 PM91 °FDuststorm.5 mph49%29.56 "Hg3 mi
7:00 PM91 °FPassing clouds.5 mph52%29.53 "Hg3 mi
6:00 PM93 °FDuststorm.3 mph53%29.53 "Hg3 mi
5:00 PM95 °FDuststorm.6 mph50%29.53 "Hg3 mi
4:00 PM95 °FDuststorm.6 mph50%29.53 "Hg3 mi
3:00 PM91 °FDuststorm.15 mph56%29.56 "Hg3 mi
2:00 PM91 °FPartly sunny.15 mph59%29.56 "Hg4 mi
1:00 PM90 °FScattered clouds.16 mph59%29.59 "Hg4 mi
12:00 PM90 °FScattered clouds.15 mph59%29.62 "Hg3 mi
11:00 AM91 °FScattered clouds.10 mph63%29.65 "Hg3 mi
10:00 AM91 °FDuststorm.3 mph59%29.65 "Hg2 mi
9:00 AM88 °FDuststorm.8 mph66%29.62 "Hg2 mi
8:00 AM88 °FDuststorm.8 mph70%29.62 "Hg2 mi
7:00 AM88 °FDuststorm.6 mph62%29.59 "Hg2 mi
6:00 AM88 °FDuststorm.7 mph62%29.59 "Hg2 mi
5:00 AM88 °FDuststorm.3 mph70%29.56 "Hg3 mi
4:00 AM88 °FDuststorm.7 mph62%29.56 "Hg3 mi
3:00 AM90 °FDuststorm.8 mph63%29.56 "Hg3 mi
2:00 AM90 °FDuststorm.7 mph59%29.56 "Hg3 mi
1:00 AM90 °FClear.No wind63%29.59 "Hg4 mi
12:00 AM90 °FClear.8 mph67%29.59 "Hg4 mi
11:00 PM
Jul 23
91 °FClear.7 mph52%29.56 "Hg4 mi
Weather by CustomWeather, © 2014

See weather overviewHow to use our weather pages